Home > Weather > Kenora > Past weeks

Flag for Canada Past Weather in Kenora, Ontario, Canada — Yesterday and Last 2 Weeks

Now
55 °F

Drizzle. Fog.


Feels Like: 53 °F
Forecast: N/A
Wind: 9 mph from Northeast

Location: Kenora

Current Time: May 28, 2016 at 5:18:40 PM

Latest Report: May 28, 2016 at 5:00 PM


Visibility: 3 mi

Pressure: 29.91 "Hg

Humidity: 94%

Dew Point: 54 °F

Location of KenoraLocation

Past Weather in Kenora — Graph

°F

Kenora Temperature Yesterday

Maximum temperature yesterday: 73 °F (at 3:00 PM)
Minimum temperature yesterday: 55 °F (at 2:00 AM)
Average temperature yesterday: 62 °F

High & Low Weather Summary for the Past Weeks

 TemperatureHumidityPressure
High79 °F (May 22, 3:00 PM)100% (May 16, 1:00 AM)30.39 "Hg (May 16, 1:00 AM)
Low25 °F (May 14, 4:00 AM)22% (May 21, 2:00 PM)29.55 "Hg (May 23, 7:00 AM)
Average57 °F63%29.98 "Hg
* Reported May 13 4:00 PM — May 28 4:00 PM, Kenora, Weather by CustomWeather, © 2016

Note: Actual official high and low records may vary slightly from our data, if they occured in-between our weather recording intervals... More about our weather records

Advertising

Kenora Weather History for the Previous 24 Hours

Scroll right to see more
 ConditionsComfort  
Time TempWeatherWind HumidityBarometerVisibility
4:00 PM
Sat, May 28
59 °FMostly cloudy.8 mph82%29.90 "Hg15 mi
3:00 PM59 °FMostly cloudy.9 mph82%29.90 "Hg15 mi
2:00 PM59 °FMostly cloudy.10 mph82%29.91 "Hg15 mi
1:00 PM59 °FMostly cloudy.9 mph88%29.92 "Hg15 mi
12:46 PM61 °FMostly cloudy.9 mph83%29.92 "Hg15 mi
12:00 PM57 °FLow clouds.10 mph94%29.93 "Hg15 mi
11:00 AM57 °FLow clouds.9 mph94%29.93 "Hg15 mi
10:00 AM57 °FLow clouds.9 mph94%29.93 "Hg12 mi
9:00 AM57 °FLow clouds.8 mph94%29.92 "Hg15 mi
8:00 AM57 °FLow clouds.8 mph94%29.92 "Hg15 mi
7:00 AM57 °FMostly cloudy.9 mph100%29.91 "Hg15 mi
6:00 AM57 °FLow clouds.8 mph100%29.91 "Hg15 mi
5:00 AM57 °FMostly cloudy.7 mph100%29.90 "Hg15 mi
4:00 AM57 °FLow clouds.7 mph100%29.90 "Hg15 mi
3:00 AM57 °FLow clouds.9 mph94%29.90 "Hg15 mi
2:00 AM57 °FPassing clouds.8 mph94%29.90 "Hg15 mi
1:00 AM57 °FPassing clouds.7 mph100%29.91 "Hg15 mi
12:00 AM59 °FPartly cloudy.6 mph100%29.91 "Hg15 mi
11:00 PM
Fri, May 27
61 °FMostly cloudy.5 mph94%29.90 "Hg15 mi
10:00 PM61 °FPartly cloudy.6 mph94%29.90 "Hg15 mi
9:00 PM61 °FScattered showers. Broken clouds.5 mph94%29.88 "Hg15 mi
8:00 PM61 °FSprinkles. Cloudy.5 mph94%29.88 "Hg10 mi
7:00 PM61 °FSprinkles. Mostly cloudy.14 mph88%29.88 "Hg10 mi
6:00 PM61 °FSprinkles. Cloudy.12 mph94%29.87 "Hg12 mi
5:00 PM66 °FBroken clouds.17 mph73%29.86 "Hg15 mi
Weather by CustomWeather, © 2016

See weather overviewHow to use our weather pages